Overview Statistics Trail Chart Weather Telemetry Raw packets
 

This is the latest recevied weather packets stored in our database for station/object KB8TTR. If no packets are shown the sender has not sent any weather packets the latest 10 day(s).

<< 12 13 14 15 16 17 18 >>
Time Temp. Humidity Pressure Rain* Wind** Luminosity Snow
1788531982 22.22° C 99% 1018.2 hPa 0 mm - 106 W/m² -
1788531678 22.22° C 99% 1018.5 hPa 0 mm - 56 W/m² -
1788531373 22.22° C 99% 1018.1 hPa 0 mm - 45 W/m² -
1788531068 22.22° C 99% 1017.1 hPa 0 mm - 65 W/m² -
1788530764 22.22° C 99% 1016.9 hPa 0 mm - 89 W/m² -
1788530463 22.22° C 99% 1016.7 hPa 0 mm - 106 W/m² -
1788530163 22.22° C 99% 1016.6 hPa 0 mm - 128 W/m² -
1788529859 22.22° C 99% 1016.8 hPa 0 mm - 84 W/m² -
1788529554 21.67° C 99% 1017 hPa 0 mm - 69 W/m² -
1788529249 21.67° C 99% 1016.8 hPa 0 mm - 77 W/m² -
1788528949 21.67° C 99% 1016.6 hPa 0 mm - 98 W/m² -
1788528646 21.67° C 99% 1016.5 hPa 0 mm - 104 W/m² -
1788528345 21.67° C 99% 1016.8 hPa 0 mm - 106 W/m² -
1788528045 21.67° C 99% 1016.8 hPa 0 mm - 78 W/m² -
1788527754 21.67° C 99% 1016.6 hPa 0 mm - 61 W/m² -
1788527441 21.67° C 99% 1016.8 hPa 0 mm - 64 W/m² -
1788527140 21.67° C 99% 1016.8 hPa 0 mm - 71 W/m² -
1788526835 21.67° C 99% 1016.9 hPa 1.27 mm - 65 W/m² -
1788526532 21.67° C 99% 1016.7 hPa 1.27 mm - 51 W/m² -
1788526232 21.67° C 99% 1016.6 hPa 1.78 mm - 21 W/m² -
1788525927 21.67° C 99% 1016.8 hPa 3.05 mm - 12 W/m² -
1788525623 21.67° C 99% 1017.1 hPa 11.94 mm - 7 W/m² -
1788525322 21.67° C 99% 1017.5 hPa 13.72 mm - 5 W/m² -
1788525019 21.67° C 99% 1018.2 hPa 16.76 mm - 4 W/m² -
1788524718 21.67° C 99% 1018.2 hPa 16.76 mm - 2 W/m² -

* Rain latest hour (hover to see other rain measurements)
** Current wind speed in m/s (hover to see current wind gust speed)